{"data":{"norad_id":64134,"epoch":"2026-09-20T19:47:58.942464Z","epoch_age_seconds":112299,"freshness":"FRESH","line1":"1 64134U 25111M   26263.82498776  .00124681  00000+0  96011-3 0  9999","line2":"2 64134  42.9988 237.2052 0001066 271.7862  88.2883 15.70853850 77336","mean_motion":15.7085385,"eccentricity":0.0001066,"inclination_deg":42.9988,"raan_deg":237.2052,"arg_perigee_deg":271.7862,"mean_anomaly_deg":88.2883,"bstar":0.00096011,"rev_number":7733,"period_min":91.669890231991,"perigee_km":355.73756840941,"apogee_km":357.17338352528,"semimajor_km":6734.5924759673,"source":"CELESTRAK","updated_at":"2026-09-21T09:00:35.234761Z"}}